Regional Weather Roundup
Issued by NWS

Home | Current Version | Previous Version | Graphics & Text | Print | Product List | Glossary On
Versions: 1 2 3 4 5 6 7 8 9 10 11 12 13 14 15 16 17 18 19 20 21 22 23 24 25 26 27 28 29 30 31 32 33 34 35 36 37 38 39 40 41 42 43 44 45 46 47 48 49 50
000
ASUS43 KIND 240659
RWRIN

WEATHER ROUNDUP FOR INDIANA
NATIONAL WEATHER SERVICE INDIANAPOLIS IN
300 AM EDT THU JUL 24 2014

NOTE: "FAIR" INDICATES FEW OR NO CLOUDS BELOW 12,000 FEET WITH NO
SIGNIFICANT WEATHER AND/OR OBSTRUCTIONS TO VISIBILITY.

* - STATION DOES NOT REPORT WEATHER SUCH AS PRECIPITATION OR FOG.

+ - STATION NOT QUALITY CONTROLLED BY THE NATIONAL WEATHER SERVICE.
    USE DATA WITH CAUTION...ESPECIALLY DEWPOINT AND RELATIVE
    HUMIDITY OBSERVATIONS.

INZ001>003-010>013-019-020-240800-
NORTHWEST INDIANA

CITY           SKY/WX    TMP DP  RH WIND       PRES   REMARKS
VALPARAISO     CLEAR     58  54  86 VRB3      30.11S

$$

LMZ046-743>745-240800-
SOUTHERN LAKE MICHIGAN

STATION/POSITION TIME  TEMP WIND        PRES
                       AIR  DIR/SP/G
                 (UTC) (F)  (DEG/KT/KT) (MB)
MICHIGAN CITY    0600   64   30/ 14/ 17   N/A

$$

INZ004-005-014>016-021>024-240800-
NORTH CENTRAL INDIANA

CITY           SKY/WX    TMP DP  RH WIND       PRES   REMARKS
GOSHEN         CLEAR     60  55  83 N7        30.09S
SOUTH BEND     CLEAR     58  53  84 N6        30.11S

$$

INZ006>009-017-018-025>027-240800-
NORTHEAST INDIANA

CITY           SKY/WX    TMP DP  RH WIND       PRES   REMARKS
ANGOLA *+      PTCLDY    61  55  82 NE5       30.09S
FORT WAYNE     MOCLDY    63  60  90 N3        30.08S

$$

INZ028-029-035-036-043>045-051>053-240800-
WEST CENTRAL INDIANA

CITY           SKY/WX    TMP DP  RH WIND       PRES   REMARKS
GREENCASTLE +  PTCLDY    55  52  88 N6        30.07S
LAFAYETTE      CLEAR     55  53  93 CALM      30.08S
TERRE HAUTE    PTCLDY    58  50  75 N3        30.06F

$$

INZ030>032-037>040-046>048-054>057-064-065-240800-
CENTRAL INDIANA

CITY           SKY/WX    TMP DP  RH WIND       PRES   REMARKS
INDIANAPOLIS   MOCLDY    61  55  81 N8        30.04S
-EAGLE CREEK   CLOUDY    60  54  80 N7        30.05S
KOKOMO *+      CLEAR     57  55  94 N3        30.07F
MT COMFORT *+  MOCLDY    61 N/A N/A N8        30.05F
SHELBYVILLE    PTCLDY    63  59  87 N8        30.03F

$$

INZ033-034-041-042-049-050-058-059-240800-
EAST CENTRAL INDIANA

CITY           SKY/WX    TMP DP  RH WIND       PRES   REMARKS
MUNCIE         CLEAR     59  56  89 NE5       30.06S

$$

INZ060-061-067>069-081>083-085>088-240800-
SOUTHWEST INDIANA

CITY           SKY/WX    TMP DP  RH WIND       PRES   REMARKS
EVANSVILLE     CLOUDY    65  56  72 N9        30.02F
HUNTINGBURG *+ CLOUDY    66  57  72 N10       30.01F

$$

INZ062-063-066-070>080-084-089>092-240800-
SOUTH CENTRAL AND SOUTHEAST INDIANA

CITY           SKY/WX    TMP DP  RH WIND       PRES   REMARKS
BLOOMINGTON    PTCLDY    60  56  86 N7        30.04F
SEYMOUR +      CLOUDY    63  50  63 N7        30.01F

$$




USA.gov is the U.S. government's official web portal to all federal, state and local government web resources and services.